Location: Newark
(42.8481°N, 0.4872°E)
Time: 08:14:51
(UTC+00:00)

Vanguard 2 - Pass Details

Date: 03 November 2020
Orbit: 554 x 2937 km, 32.9° (Epoch: 28 November)

Event Time Altitude Azimuth Distance (km) Brightness Sun altitude
Rises 19:43:25 0° 256° (WSW) 4,874 12.5 -32.6°
Reaches altitude 10° 19:46:15 10° 252° (WSW) 4,162 11.9 -33.1°
Maximum altitude 19:57:57 57° 178° (S) 2,778 10.0 -35.2°
Enters shadow 20:01:03 51° 144° (SE) 3,061 10.1 -35.8°
Drops below altitude 10° 20:14:39 10° 106° (ESE) 5,746 - -38.2°
Sets 20:19:22 0° 103° (ESE) 6,786 - -39.0°
